CW5346 Weather Reports


time (UTC)temp
C
wind
direction
speed
KPH
gust
KPH
rain 1hr
cm
rain 24hr
cm
rain mn
cm
humidity
%
barometer
mb
20260504081603 3 282 0.0 0.0 0.00 0.00 0.00 91 1013.2
20260504080603 3 282 0.0 0.0 0.00 0.00 0.00 91 1013.1
20260504050603 3 282 0.0 0.0 0.00 0.00 0.00 85 1012.8
20260504045603 3 282 0.0 0.0 0.00 0.00 0.00 85 1012.8
20260504044604 3 282 0.0 0.0 0.00 0.00 0.00 84 1012.7
20260504043603 3 282 0.0 0.0 0.00 0.00 0.00 83 1012.6
20260504042625 4 282 0.0 0.0 0.00 0.00 0.00 81 1012.4
20260504041604 4 282 0.0 0.0 0.00 0.00 0.00 81 1012.2
20260504040603 4 282 0.0 0.0 0.00 0.00 0.00 79 1012.2
20260504035603 5 282 0.0 0.0 0.00 0.00 0.00 78 1012.2
20260504034603 5 282 0.0 0.0 0.00 0.00 0.00 77 1012.2
20260504033603 5 282 0.0 0.0 0.00 0.00 0.00 76 1012.2
20260504032604 5 282 0.0 0.0 0.00 0.00 0.00 75 1012.2
20260504031603 5 282 0.0 0.0 0.00 0.00 0.00 74 1012.2
20260504030603 6 282 0.0 0.0 0.00 0.00 0.00 73 1012.3
20260504025603 6 282 0.0 0.0 0.00 0.00 0.00 72 1012.3
20260504024603 6 282 0.0 0.0 0.00 0.00 0.00 72 1012.3
20260504023603 6 282 0.0 0.0 0.00 0.00 0.00 70 1012.2
20260504022604 6 282 0.0 0.0 0.00 0.00 0.00 68 1012.3
20260504021603 7 282 0.0 0.0 0.00 0.00 0.00 67 1012.4
20260504020603 7 282 0.0 0.0 0.00 0.00 0.00 66 1012.3
20260504015603 7 282 0.0 0.0 0.00 0.00 0.00 64 1012.3
20260504014603 8 282 0.0 0.0 0.00 0.00 0.00 63 1012.2
20260504013603 8 282 0.0 0.0 0.00 0.00 0.00 61 1012.1
20260504012603 9 282 0.0 0.0 0.00 0.00 0.00 60 1012.1
20260504011604 10 282 0.0 0.0 0.00 0.00 0.00 55 1011.9
20260504010603 10 282 0.0 0.0 0.00 0.00 0.00 55 1011.7
20260504005602 10 282 0.0 0.0 0.00 0.00 0.00 52 1011.6
20260504004603 11 282 0.0 0.0 0.00 0.00 0.00 53 1011.4
20260504003603 12 282 0.0 0.0 0.00 0.00 0.00 48 1011.3
20260504002603 12 282 0.0 3.2 0.00 0.00 0.00 44 1011.2
20260504001625 13 282 0.0 12.9 0.00 0.00 0.00 44 1011.0
20260504000603 13 282 0.0 9.7 0.00 0.00 0.00 42 1010.9
20260503234624 13 286 0.0 14.5 0.00 0.00 0.00 43 1010.6
20260503233603 14 288 0.0 11.3 0.00 0.00 0.00 39 1010.5
20260503232603 14 288 0.0 14.5 0.00 0.00 0.00 36 1010.5
20260503231603 14 281 6.4 14.5 0.00 0.00 0.00 36 1010.4
20260503230603 14 319 0.0 8.0 0.00 0.00 0.00 36 1010.3
20260503225604 15 308 3.2 14.5 0.00 0.00 0.00 37 1010.2
20260503224603 15 312 3.2 14.5 0.00 0.00 0.00 34 1010.2
20260503223603 15 326 0.0 14.5 0.00 0.00 0.00 34 1010.1
20260503222603 15 257 11.3 24.1 0.00 0.00 0.00 32 1010.2
20260503221603 15 315 1.6 19.3 0.00 0.00 0.00 34 1010.1
20260503220603 15 307 8.0 17.7 0.00 0.00 0.00 32 1010.2
20260503215603 15 286 8.0 14.5 0.00 0.00 0.00 32 1010.3
20260503214603 15 282 8.0 20.9 0.00 0.00 0.00 31 1010.1
20260503213603 15 324 6.4 14.5 0.00 0.00 0.00 31 1010.1
20260503212603 15 285 4.8 22.5 0.00 0.00 0.00 34 1010.1
20260503211603 14 339 4.8 19.3 0.00 0.00 0.00 33 1010.2
20260503210602 14 274 12.9 20.9 0.00 0.00 0.00 32 1010.1
20260503205603 14 236 8.0 29.0 0.00 0.00 0.00 34 1010.0
20260503204603 14 275 11.3 24.1 0.00 0.00 0.00 32 1010.3
20260503203624 13 252 6.4 20.9 0.00 0.00 0.00 34 1010.1
20260503202603 13 329 8.0 22.5 0.00 0.00 0.00 34 1010.3
20260503195603 13 343 4.8 24.1 0.00 0.00 0.00 36 1010.3
20260503194603 14 298 11.3 25.7 0.00 0.00 0.00 36 1010.4
20260503193602 13 329 6.4 25.7 0.00 0.00 0.00 34 1010.4
20260503192603 13 282 11.3 25.7 0.00 0.00 0.00 36 1010.7
20260503190647 13 4 9.7 24.1 0.00 0.00 0.00 37 1010.8
20260503185604 13 275 9.7 24.1 0.00 0.00 0.00 35 1010.7
20260503184625 13 268 11.3 24.1 0.00 0.00 0.00 40 1010.6
20260503183604 12 338 9.7 22.5 0.00 0.00 0.00 38 1010.9
20260503182604 12 302 11.3 19.3 0.00 0.00 0.00 38 1011.0
20260503181625 12 329 8.0 25.7 0.00 0.00 0.00 38 1011.2
20260503180625 12 323 9.7 32.2 0.00 0.00 0.00 38 1011.1
20260503175604 12 337 6.4 20.9 0.00 0.00 0.00 40 1011.2
20260503174604 12 302 12.9 25.7 0.00 0.00 0.00 40 1011.3
20260503173604 12 287 11.3 22.5 0.00 0.00 0.00 42 1011.4
20260503172604 11 311 9.7 22.5 0.00 0.00 0.00 41 1011.6
20260503171604 11 277 9.7 22.5 0.00 0.00 0.00 44 1011.5
20260503170604 11 335 11.3 22.5 0.00 0.00 0.00 44 1011.9
20260503150627 11 334 9.7 22.5 0.00 0.00 0.00 40 1012.2
20260503130625 8 338 6.4 17.7 0.00 0.00 0.00 58 1012.1
20260503110604 6 345 1.6 17.7 0.00 0.00 0.00 65 1011.7